sat.trackr.live / text

‹ back to catalog

STARLINK-37673

NORAD 69370 · 2026-123T

PAYLOAD ACTIVE UNKNOWN

§ Identity

Operator
Country
US
Launch date
2026-06-04
Launch site
AFETR
Launch vehicle
Mass (kg)
RCS (m²)

Purposes: comms

External: N2YO · Heavens-Above · Gunter

§ Orbital elements

Epoch: 2026-09-20T04:40:17.171616Z

Period
93.85 min
Inclination
53.1594°
Eccentricity
0.0001212
Mean motion
15.34407996 rev/d
Perigee alt
461.9 km
Apogee alt
463.5 km
Semi-major
6,840.8 km
B*
4.7980e-4
RAAN
143.1175°
Arg perigee
86.2491°
Mean anomaly
273.8651°
Rev number
1,682

§ Raw data

STARLINK-376731 69370U 26123T   26263.19464319  .00015873  00000+0  47980-3 0  99992 69370  53.1594 143.1175 0001212  86.2491 273.8651 15.34407996 16829

JSON: /api/v1/satellites/69370 · /tle

For live sub-satellite position, see the globe view (requires WebGL).

§ Visibility from observer

Set your observer location to see the next 7 days of passes ≥ 10°. The values pass through the URL so the page stays shareable.

No JS? Fill the form by hand. The geolocation button needs JavaScript.